Regional Weather Roundup
Issued by NWS

Home | Current Version | Previous Version | Text Only | Print | Product List | Glossary Off
Versions: 1 2 3 4 5 6 7 8 9 10 11 12 13 14 15 16 17 18 19 20 21 22 23 24 25 26 27

000
ASUS45 KCYS 220310
RWRWY

WYOMING REGIONAL WEATHER ROUNDUP
NATIONAL WEATHER SERVICE CHEYENNE WY
900 PM MDT MON AUG 21 2017

NOTE:  "FAIR" INDICATES FEW OR NO CLOUDS BELOW 12,000 FEET
WITH NO SIGNIFICANT WEATHER AND/OR OBSTRUCTIONS TO VISIBILITY.

WYZ001-220400-
YELLOWSTONE NATIONAL PARK

CITY           SKY/WX    TMP DP  RH WIND       PRES   REMARKS
LK YELLOWSTONE   N/A     51  38  60 NW5       30.40R
W YELLOWSTONE  NOT AVBL

$$
WYZ002>013-054>058-071-098>099-220400-
NORTHERN WYOMING

CITY           SKY/WX    TMP DP  RH WIND       PRES   REMARKS
JACKSON        FAIR      61  30  31 E3        30.28R
CODY           FAIR      66  34  30 NW5       30.25R
GREYBULL       NOT AVBL
WORLAND        FAIR      63  39  41 CALM      30.15R
SHERIDAN       FAIR      62  40  44 CALM      30.20R
BUFFALO        FAIR      60  35  39 W6        30.26R
GILLETTE       FAIR      53  33  46 CALM      30.22R
HULETT         FAIR      61  36  39 E5        30.25R
NEWCASTLE      FAIR      64  32  29 NE6       30.22R

$$
WYZ014>020-022>026-101>103-220400-
CENTRAL WYOMING

CITY           SKY/WX    TMP DP  RH WIND       PRES   REMARKS
BIG PINEY      FAIR      60  27  28 N13       30.32R
PINEDALE       FAIR      54  32  43 NW6       30.33R
DUBOIS         FAIR      63  32  31 S7        30.33R
LANDER           N/A    N/A N/A N/A MISG      30.25R
RIVERTON       FAIR      71  33  24 NE13      30.22R
CASPER         FAIR      69  36  29 E14       30.23R
DOUGLAS        FAIR      63  38  39 E10       30.24R

$$
WYZ021-027>030-104>119-220400-
SOUTHERN WYOMING

CITY           SKY/WX    TMP DP  RH WIND       PRES   REMARKS
EVANSTON       FAIR      68  36  30 NW9       30.33R
KEMMERER         N/A     64  27  24 NW9       30.35R
FORT BRIDGER   FAIR      70  28  21 NW7       30.35R
ROCK SPRINGS   FAIR      73  26  17 W13       30.27R
RAWLINS        FAIR      67  33  28 NE10      30.28R
SARATOGA       FAIR      64  32  29 W7        30.29R
LARAMIE        FAIR      62  37  39 E9        30.34R
CHEYENNE       FAIR      62  46  55 E7        30.31R
TORRINGTON     FAIR      66  45  46 NE10      30.19R
PINE BLUFFS    FAIR      63  45  51 CALM      30.27R

$$




USA.gov is the U.S. government's official web portal to all federal, state and local government web resources and services.